GW5115 Weather Reports


time (UTC)temp
C
wind
direction
speed
KPH
gust
KPH
rain 1hr
cm
rain 24hr
cm
rain mn
cm
humidity
%
barometer
mb
20260504081645 6 213 0.0 0.0 0.00 0.00 0.00 99 1015.9
20260504081141 6 218 0.0 0.0 0.00 0.00 0.00 99 1016.1
20260504080637 6 218 0.0 0.0 0.00 0.00 0.00 99 1016.1
20260504080134 6 218 0.0 0.0 0.00 0.00 0.00 99 1016.1
20260504050450 8 115 1.6 3.2 0.00 0.00 0.00 78 1017.6
20260504045947 8 201 1.6 4.8 0.00 0.00 0.00 83 1017.5
20260504045443 7 150 0.0 0.0 0.00 0.00 0.00 89 1017.5
20260504044939 6 149 0.0 0.0 0.00 0.00 0.00 92 1017.4
20260504044437 6 149 0.0 0.0 0.00 0.00 0.00 91 1017.3
20260504043934 6 149 0.0 0.0 0.00 0.00 0.00 92 1017.1
20260504043431 6 138 1.6 3.2 0.00 0.00 0.00 90 1017.3
20260504042929 6 138 0.0 0.0 0.00 0.00 0.00 92 1017.4
20260504042425 6 138 0.0 0.0 0.00 0.00 0.00 92 1017.2
20260504041921 6 138 0.0 0.0 0.00 0.00 0.00 92 1017.0
20260504041418 6 137 0.0 0.0 0.00 0.00 0.00 90 1017.2
20260504040914 6 137 0.0 0.0 0.00 0.00 0.00 90 1017.2
20260504040412 6 137 0.0 0.0 0.00 0.00 0.00 90 1017.3
20260504035908 6 137 0.0 0.0 0.00 0.00 0.00 90 1017.4
20260504035405 6 137 0.0 0.0 0.00 0.00 0.00 91 1017.2
20260504034901 6 138 0.0 0.0 0.00 0.00 0.00 91 1017.3
20260504034359 6 137 0.0 0.0 0.00 0.00 0.00 92 1017.2
20260504033856 6 131 0.0 0.0 0.00 0.00 0.00 90 1017.1
20260504033354 6 131 1.6 1.6 0.00 0.00 0.00 91 1017.1
20260504032850 6 157 0.0 0.0 0.00 0.00 0.00 91 1017.3
20260504032347 6 158 0.0 1.6 0.00 0.00 0.00 91 1017.2
20260504031844 6 163 0.0 0.0 0.00 0.00 0.00 90 1017.2
20260504031341 6 165 0.0 1.6 0.00 0.00 0.00 90 1017.3
20260504030837 6 179 0.0 0.0 0.00 0.00 0.00 89 1017.2
20260504030335 6 179 0.0 0.0 0.00 0.00 0.00 88 1017.3
20260504025831 6 179 0.0 0.0 0.00 0.00 0.00 90 1017.3
20260504025328 6 179 0.0 0.0 0.00 0.00 0.00 90 1017.3
20260504024825 6 179 0.0 0.0 0.00 0.00 0.00 89 1017.4
20260504024321 6 179 0.0 0.0 0.00 0.00 0.00 88 1017.4
20260504023818 6 179 0.0 0.0 0.00 0.00 0.00 88 1017.2
20260504023315 7 179 0.0 0.0 0.00 0.00 0.00 86 1017.2
20260504022810 7 179 0.0 0.0 0.00 0.00 0.00 86 1017.2
20260504022308 7 179 0.0 0.0 0.00 0.00 0.00 88 1017.1
20260504021804 7 179 1.6 3.2 0.00 0.00 0.00 85 1016.9
20260504021302 8 180 0.0 0.0 0.00 0.00 0.00 85 1017.0
20260504020758 8 180 0.0 0.0 0.00 0.00 0.00 84 1017.0
20260504020255 8 180 0.0 0.0 0.00 0.00 0.00 79 1016.9
20260504015751 8 180 0.0 0.0 0.00 0.00 0.00 78 1016.9
20260504015248 9 180 0.0 0.0 0.00 0.00 0.00 79 1017.0
20260504014743 9 180 0.0 0.0 0.00 0.00 0.00 77 1016.9
20260504014240 9 181 0.0 0.0 0.00 0.00 0.00 78 1016.8
20260504013738 9 181 0.0 0.0 0.00 0.00 0.00 78 1016.8
20260504013235 10 181 0.0 0.0 0.00 0.00 0.00 77 1017.0
20260504012731 10 181 0.0 0.0 0.00 0.00 0.00 78 1017.2
20260504012229 10 180 0.0 0.0 0.00 0.00 0.00 78 1017.2
20260504011726 10 180 0.0 0.0 0.00 0.00 0.00 74 1017.4
20260504011223 10 180 0.0 0.0 0.00 0.00 0.00 76 1017.4
20260504010719 10 180 0.0 0.0 0.00 0.00 0.00 76 1017.2
20260504010215 10 181 0.0 0.0 0.00 0.00 0.00 76 1017.2
20260504005711 10 181 0.0 0.0 0.00 0.00 0.00 77 1017.1
20260504005209 11 181 0.0 0.0 0.00 0.00 0.00 74 1017.0
20260504004706 11 181 0.0 0.0 0.00 0.00 0.00 74 1017.0
20260504004203 11 181 0.0 0.0 0.00 0.00 0.00 71 1017.0
20260504003700 11 181 0.0 0.0 0.00 0.00 0.00 70 1016.9
20260504003156 11 181 0.0 0.0 0.00 0.00 0.00 68 1017.0
20260504002653 11 181 0.0 0.0 0.00 0.00 0.00 65 1016.9
20260504002150 11 181 0.0 0.0 0.00 0.00 0.00 67 1016.9
20260504001648 12 181 0.0 0.0 0.00 0.00 0.00 65 1016.9
20260504001144 12 181 0.0 0.0 0.00 0.00 0.00 57 1016.9
20260504000641 12 181 0.0 0.0 0.00 0.00 0.00 58 1017.0
20260504000139 12 181 0.0 0.0 0.00 0.00 0.00 59 1016.6
20260503235637 13 181 0.0 0.0 0.00 0.00 0.00 55 1016.8
20260503235133 13 181 0.0 0.0 0.00 0.00 0.00 50 1016.7
20260503234631 14 181 1.6 1.6 0.00 0.00 0.00 50 1016.6
20260503234129 14 171 3.2 3.2 0.00 0.00 0.00 39 1016.7
20260503233626 15 232 1.6 3.2 0.00 0.00 0.00 39 1017.1
20260503233121 15 255 0.0 0.0 0.00 0.00 0.00 39 1017.0
20260503232619 15 294 0.0 0.0 0.00 0.00 0.00 39 1016.9
20260503232116 15 294 0.0 0.0 0.00 0.00 0.00 44 1017.0
20260503231614 15 296 0.0 3.2 0.00 0.00 0.00 35 1017.3
20260503231110 15 354 1.6 3.2 0.00 0.00 0.00 39 1017.1
20260503230607 15 261 1.6 1.6 0.00 0.00 0.00 37 1017.3
20260503230104 15 255 1.6 3.2 0.00 0.00 0.00 36 1017.3
20260503225601 15 287 0.0 0.0 0.00 0.00 0.00 40 1017.4
20260503225056 15 309 3.2 3.2 0.00 0.00 0.00 37 1017.6
20260503224554 15 233 3.2 3.2 0.00 0.00 0.00 36 1017.5
20260503224052 15 318 0.0 4.8 0.00 0.00 0.00 35 1017.6
20260503223550 15 211 6.4 12.9 0.00 0.00 0.00 34 1017.5
20260503223045 15 346 0.0 3.2 0.00 0.00 0.00 37 1017.4
20260503222543 15 250 0.0 3.2 0.00 0.00 0.00 38 1017.5
20260503222041 15 82 0.0 3.2 0.00 0.00 0.00 34 1017.6
20260503221539 15 315 1.6 9.7 0.00 0.00 0.00 33 1017.5
20260503221036 15 3 4.8 11.3 0.00 0.00 0.00 33 1017.7
20260503220532 16 350 9.7 17.7 0.00 0.00 0.00 32 1017.4
20260503220029 16 243 8.0 9.7 0.00 0.00 0.00 30 1017.6
20260503215526 16 324 4.8 14.5 0.00 0.00 0.00 31 1017.6
20260503215023 16 350 1.6 22.5 0.00 0.00 0.00 33 1017.7
20260503214522 17 127 4.8 9.7 0.00 0.00 0.00 30 1017.6
20260503214018 16 85 1.6 4.8 0.00 0.00 0.00 31 1017.6
20260503213516 17 297 11.3 14.5 0.00 0.00 0.00 31 1017.5
20260503213013 16 329 8.0 11.3 0.00 0.00 0.00 32 1017.5
20260503212510 16 294 16.1 17.7 0.00 0.00 0.00 32 1017.7
20260503212007 16 309 8.0 12.9 0.00 0.00 0.00 33 1017.5
20260503211504 16 229 0.0 0.0 0.00 0.00 0.00 30 1017.6
20260503211000 16 317 8.0 16.1 0.00 0.00 0.00 34 1017.8
20260503210457 16 323 11.3 22.5 0.00 0.00 0.00 34 1017.5
20260503205957 16 292 3.2 14.5 0.00 0.00 0.00 36 1017.6
20260503205454 16 291 1.6 9.7 0.00 0.00 0.00 33 1017.7
20260503204951 16 329 8.0 11.3 0.00 0.00 0.00 32 1017.8
20260503204448 16 324 6.4 20.9 0.00 0.00 0.00 34 1017.7
20260503203945 16 201 4.8 6.4 0.00 0.00 0.00 33 1018.0
20260503203443 16 281 8.0 11.3 0.00 0.00 0.00 33 1017.8
20260503202939 16 128 3.2 6.4 0.00 0.00 0.00 31 1018.0
20260503202437 16 107 3.2 11.3 0.00 0.00 0.00 35 1018.1
20260503201936 15 265 4.8 16.1 0.00 0.00 0.00 34 1018.3
20260503201432 16 300 19.3 22.5 0.00 0.00 0.00 31 1018.2
20260503200930 15 347 6.4 16.1 0.00 0.00 0.00 34 1018.3
20260503200426 16 292 16.1 22.5 0.00 0.00 0.00 31 1018.5
20260503195923 15 201 8.0 20.9 0.00 0.00 0.00 37 1018.6
20260503195420 15 173 6.4 14.5 0.00 0.00 0.00 31 1018.7
20260503194916 15 316 6.4 12.9 0.00 0.00 0.00 33 1019.1
20260503194413 15 302 6.4 14.5 0.00 0.00 0.00 33 1019.1
20260503193909 16 351 6.4 17.7 0.00 0.00 0.00 36 1019.0
20260503193404 15 317 6.4 11.3 0.00 0.00 0.00 36 1019.2
20260503192900 15 307 14.5 20.9 0.00 0.00 0.00 34 1019.1
20260503192356 15 252 1.6 4.8 0.00 0.00 0.00 36 1019.1
20260503191853 15 204 8.0 17.7 0.00 0.00 0.00 33 1019.3
20260503191350 14 179 6.4 9.7 0.00 0.00 0.00 33 1019.3
20260503190846 15 224 14.5 20.9 0.00 0.00 0.00 38 1019.7
20260503190344 15 333 14.5 16.1 0.00 0.00 0.00 33 1019.8
20260503185841 15 129 1.6 3.2 0.00 0.00 0.00 40 1019.9
20260503185337 15 313 17.7 24.1 0.00 0.00 0.00 35 1019.7
20260503184836 15 309 4.8 9.7 0.00 0.00 0.00 37 1020.0
20260503184333 15 318 9.7 12.9 0.00 0.00 0.00 37 1020.0
20260503183828 14 61 6.4 9.7 0.00 0.00 0.00 35 1020.1
20260503183326 14 66 9.7 12.9 0.00 0.00 0.00 35 1020.1
20260503182823 13 302 6.4 20.9 0.00 0.00 0.00 38 1020.0
20260503182322 14 332 12.9 20.9 0.00 0.00 0.00 40 1020.2
20260503181819 13 86 8.0 11.3 0.00 0.00 0.00 36 1020.3
20260503181316 13 23 6.4 6.4 0.00 0.00 0.00 36 1020.5
20260503180813 15 278 8.0 12.9 0.00 0.00 0.00 36 1020.5
20260503180311 15 278 8.0 12.9 0.00 0.00 0.00 36 1020.5
20260503175806 13 9 3.2 12.9 0.00 0.00 0.00 42 1020.7
20260503175306 13 40 3.2 12.9 0.00 0.00 0.00 38 1020.6
20260503174805 14 309 14.5 17.7 0.00 0.00 0.00 38 1020.7
20260503174304 13 128 3.2 6.4 0.00 0.00 0.00 35 1021.0
20260503173759 13 35 11.3 17.7 0.00 0.00 0.00 35 1020.8
20260503173255 13 177 3.2 17.7 0.00 0.00 0.00 35 1020.8
20260503172752 14 325 6.4 6.4 0.00 0.00 0.00 38 1020.9
20260503172249 13 299 6.4 11.3 0.00 0.00 0.00 41 1021.0
20260503171746 14 15 9.7 14.5 0.00 0.00 0.00 37 1021.0
20260503171243 13 148 1.6 9.7 0.00 0.00 0.00 42 1021.0
20260503170740 13 338 6.4 9.7 0.00 0.00 0.00 43 1021.5
20260503170237 12 23 6.4 16.1 0.00 0.00 0.00 36 1021.2
20260503160159 11 19 11.3 17.7 0.00 0.00 0.00 40 1022.1
20260503150629 10 330 6.4 20.9 0.00 0.00 0.00 48 1022.5
20260503150125 10 322 8.0 16.1 0.00 0.00 0.00 50 1022.2
20260503131019 6 299 11.3 12.9 0.00 0.00 0.00 75 1022.4
20260503130516 6 272 4.8 6.4 0.00 0.00 0.00 77 1022.4
20260503110412 -3 44 0.0 0.0 0.00 0.00 0.00 99 1021.4